This is the latest recevied weather packets stored in our database for station/object IT9CNT. If no packets are shown the sender has not sent any weather packets the latest 1 day(s).
| Time | Temp. | Humidity | Pressure | Rain* | Wind** | Luminosity | Snow |
|---|---|---|---|---|---|---|---|
| 1778055843 | 19.44° C | 75% | 1012.4 hPa | 0 mm | 4.47 m/s, 100° | - | - |
| 1778055783 | 19.44° C | 76% | 1012.1 hPa | 0 mm | 4.47 m/s, 102° | - | - |
| 1778055723 | 19.44° C | 77% | 1012 hPa | 0 mm | 4.47 m/s, 102° | - | - |
| 1778055665 | 19.44° C | 78% | 1012.1 hPa | 0 mm | 4.47 m/s, 103° | - | - |
| 1778055603 | 19.44° C | 77% | 1012.1 hPa | 0 mm | 4.02 m/s, 103° | - | - |
| 1778055543 | 18.89° C | 77% | 1012.1 hPa | 0 mm | 4.02 m/s, 103° | - | - |
| 1778055483 | 18.89° C | 77% | 1012.1 hPa | 0 mm | 3.58 m/s, 102° | - | - |
| 1778055423 | 19.44° C | 78% | 1012.3 hPa | 0 mm | 3.58 m/s, 105° | - | - |
| 1778055363 | 18.89° C | 78% | 1012.1 hPa | 0 mm | 3.58 m/s, 107° | - | - |
| 1778055303 | 19.44° C | 77% | 1012 hPa | 0 mm | 3.58 m/s, 108° | - | - |
| 1778055243 | 19.44° C | 77% | 1012 hPa | 0 mm | 3.58 m/s, 110° | - | - |
| 1778055183 | 19.44° C | 77% | 1012.1 hPa | 0 mm | 3.13 m/s, 111° | - | - |
| 1778055123 | 19.44° C | 77% | 1012.1 hPa | 0 mm | 3.13 m/s, 112° | - | - |
| 1778055063 | 19.44° C | 78% | 1012.2 hPa | 0 mm | 3.13 m/s, 107° | - | - |
| 1778055003 | 19.44° C | 78% | 1012.2 hPa | 0 mm | 3.13 m/s, 114° | - | - |
| 1778054943 | 19.44° C | 78% | 1012.2 hPa | 0 mm | 3.13 m/s, 119° | - | - |
| 1778054883 | 19.44° C | 77% | 1012.3 hPa | 0 mm | 2.68 m/s, 121° | - | - |
| 1778054823 | 19.44° C | 77% | 1012.1 hPa | 0 mm | 2.68 m/s, 121° | - | - |
| 1778054763 | 19.44° C | 77% | 1012.2 hPa | 0 mm | 2.68 m/s, 122° | - | - |
| 1778054708 | 19.44° C | 77% | 1012.3 hPa | 0 mm | 2.68 m/s, 130° | - | - |
| 1778054643 | 19.44° C | 77% | 1012 hPa | 0 mm | 2.68 m/s, 134° | - | - |
| 1778054583 | 19.44° C | 77% | 1012.1 hPa | 0 mm | 3.13 m/s, 134° | - | - |
| 1778054523 | 18.89° C | 77% | 1011.9 hPa | 0 mm | 3.13 m/s, 133° | - | - |
| 1778054463 | 19.44° C | 76% | 1012.1 hPa | 0 mm | 3.13 m/s, 138° | - | - |
| 1778054403 | 19.44° C | 77% | 1012.1 hPa | 0 mm | 3.13 m/s, 134° | - | - |
* Rain latest hour (hover to see other rain measurements)
** Current wind speed in m/s (hover to see current wind gust speed)